Flag Weather past 2 weeks in Chengdu, Sichuan, China

Now
54 °F

Fog.


Feels Like: 54 °F
Forecast: 47 / 61 °F
Wind: 1 mph from North

Location: Chengdu Airport

Current Time: Nov 26, 2014 at 9:15:15 PM

Latest Report: Nov 26, 2014 at 8:00 PM


Visibility: 3 mi

Pressure: 29.89 "Hg

Humidity: 77%

Dew point: 46 °F

Location of ChengduLocation

Historic Weather in Chengdu — Graph

°F

Chengdu temperature yesterday

Maximum temperature yesterday: 61 °F (at 12:00 PM)
Minimum temperature yesterday: 46 °F (at 7:00 AM)
Average temperature yesterday: 54 °F

Past Weeks' High & Low Weather Summary

 TemperatureHumidityPressure
High64 °F (Nov 12, 2:00 PM)94% (Nov 12, 7:00 AM)30.42 "Hg (Nov 12, 7:00 AM)
Low46 °F (Nov 19, 4:00 AM)34% (Nov 13, 4:00 PM)29.83 "Hg (Nov 26, 3:00 PM)
Average55 °F77%30.17 "Hg
* Reported Nov 11 8:00 PM — Nov 26 8:00 PM, Chengdu, Weather by CustomWeather, © 2014

Note: Actual official high and low records may vary slightly from our data, if they occured in-between our weather recording intervals... More about our weather records

Advertising

Chengdu weather history for previous 24 hours

 ConditionsComfort  
Time TempWeatherWind HumidityBarometerVisibility
8:00 PM
Nov 26
54 °FFog.1 mph77%29.89 "Hg3 mi
7:00 PM54 °FFog.No wind77%29.86 "Hg3 mi
6:00 PM54 °FFog.1 mph77%29.83 "Hg3 mi
5:00 PM55 °FFog.3 mph72%29.83 "Hg3 mi
4:00 PM55 °FFog.3 mph72%29.83 "Hg3 mi
3:00 PM55 °FFog.3 mph72%29.83 "Hg3 mi
2:00 PM54 °FFog.3 mph77%29.86 "Hg2 mi
1:00 PM54 °FFog.6 mph77%29.89 "Hg2 mi
12:00 PM54 °FFog.6 mph77%29.92 "Hg2 mi
11:00 AM54 °FFog.3 mph77%29.95 "Hg2 mi
10:00 AM52 °FFog.3 mph82%29.95 "Hg2 mi
9:00 AM52 °FLight rain. Fog.1 mph82%29.92 "Hg2 mi
8:00 AM52 °FLight rain. Fog.1 mph82%29.92 "Hg2 mi
7:00 AM52 °FLight rain. Fog.No wind82%29.89 "Hg3 mi
6:00 AM52 °FLight rain. Fog.No wind82%29.89 "Hg3 mi
5:00 AM52 °FLight rain. Fog.No wind82%29.89 "Hg3 mi
4:00 AM52 °FFog.1 mph82%29.92 "Hg3 mi
3:00 AM52 °FFog.3 mph82%29.95 "Hg3 mi
2:00 AM54 °FFog.1 mph77%29.95 "Hg3 mi
1:00 AM54 °FPassing clouds.1 mph77%29.95 "Hg4 mi
12:00 AM54 °FPassing clouds.1 mph77%29.95 "Hg4 mi
11:00 PM
Nov 25
54 °FFog.1 mph72%29.98 "Hg3 mi
10:00 PM54 °FFog.1 mph72%29.98 "Hg3 mi
9:00 PM54 °FFog.1 mph72%29.98 "Hg3 mi
Weather by CustomWeather, © 2014

See weather overviewHow to use our weather pages